Time,TemperatureF,DewpointF,PressureIn,WindDirection,WindDirectionDegrees,WindSpeedMPH,WindSpeedGustMPH,Humidity,HourlyPrecipIn,Conditions,Clouds,dailyrainin,SoftwareType,DateUTC
2017-12-15 00:04:00,17.1,8.0,30.10,ESE,113,0.0,-999.0,69,0.00,,,0.00,,2017-12-15 05:04:00,
2017-12-15 00:09:00,16.9,8.0,30.10,East,90,0.0,-999.0,70,0.00,,,0.00,,2017-12-15 05:09:00,
2017-12-15 00:14:00,16.7,8.0,30.11,South,180,0.0,-999.0,70,0.00,,,0.00,,2017-12-15 05:14:00,
2017-12-15 00:19:00,16.4,8.0,30.10,ESE,113,0.0,-999.0,70,0.00,,,0.00,,2017-12-15 05:19:00,
2017-12-15 00:24:00,16.2,8.0,30.11,SSE,158,0.0,-999.0,70,0.00,,,0.00,,2017-12-15 05:24:00,
2017-12-15 00:29:00,16.2,8.0,30.11,East,90,0.0,-999.0,70,0.00,,,0.00,,2017-12-15 05:29:00,
2017-12-15 00:36:00,16.4,8.0,30.11,SSE,158,0.0,-999.0,70,0.00,,,0.00,,2017-12-15 05:36:00,
2017-12-15 00:41:00,16.2,8.0,30.10,SSE,158,0.0,-999.0,71,0.00,,,0.00,,2017-12-15 05:41:00,
2017-12-15 00:42:00,16.2,8.0,30.10,SE,135,0.0,-999.0,71,0.00,,,0.00,,2017-12-15 05:42:00,
2017-12-15 00:47:00,16.2,8.0,30.11,SSE,158,0.0,-999.0,71,0.00,,,0.00,,2017-12-15 05:47:00,
2017-12-15 00:52:00,16.2,8.0,30.10,ESE,113,0.0,-999.0,71,0.00,,,0.00,,2017-12-15 05:52:00,
2017-12-15 00:57:00,15.9,8.0,30.10,ENE,68,0.0,-999.0,70,0.00,,,0.00,,2017-12-15 05:57:00,
2017-12-15 01:03:00,16.2,8.0,30.10,SSE,158,0.0,-999.0,71,0.00,,,0.00,,2017-12-15 06:03:00,
2017-12-15 01:08:00,15.9,8.0,30.11,SSE,158,0.0,-999.0,73,0.00,,,0.00,,2017-12-15 06:08:00,
2017-12-15 01:13:00,15.9,8.0,30.11,ESE,113,0.0,-999.0,73,0.00,,,0.00,,2017-12-15 06:13:00,
2017-12-15 01:18:00,16.2,8.0,30.10,ESE,113,0.0,-999.0,71,0.00,,,0.00,,2017-12-15 06:18:00,
2017-12-15 01:23:00,16.2,9.0,30.11,ESE,113,0.0,-999.0,73,0.00,,,0.00,,2017-12-15 06:23:00,
2017-12-15 01:28:00,16.2,8.0,30.10,South,180,0.0,-999.0,71,0.00,,,0.00,,2017-12-15 06:28:00,
2017-12-15 01:33:00,16.2,8.0,30.10,ESE,113,0.0,-999.0,71,0.00,,,0.00,,2017-12-15 06:33:00,
2017-12-15 01:38:00,15.9,8.0,30.10,ESE,113,0.0,-999.0,73,0.00,,,0.00,,2017-12-15 06:38:00,
2017-12-15 01:43:00,15.9,8.0,30.10,SE,135,0.0,-999.0,73,0.00,,,0.00,,2017-12-15 06:43:00,
2017-12-15 01:48:00,15.8,8.0,30.10,SE,135,0.0,-999.0,74,0.00,,,0.00,,2017-12-15 06:48:00,
2017-12-15 01:53:00,15.8,8.0,30.10,ESE,113,0.0,-999.0,73,0.00,,,0.00,,2017-12-15 06:53:00,
2017-12-15 01:58:00,15.6,8.0,30.11,South,180,0.0,-999.0,74,0.00,,,0.00,,2017-12-15 06:58:00,
2017-12-15 02:03:00,15.3,8.0,30.10,SSE,158,0.0,-999.0,75,0.00,,,0.00,,2017-12-15 07:03:00,
2017-12-15 02:08:00,15.3,8.0,30.10,SSE,158,0.0,-999.0,75,0.00,,,0.00,,2017-12-15 07:08:00,
2017-12-15 02:14:00,15.2,9.0,30.10,East,90,0.0,-999.0,75,0.00,,,0.00,,2017-12-15 07:14:00,
2017-12-15 02:19:00,15.2,9.0,30.10,SSE,158,0.0,-999.0,75,0.00,,,0.00,,2017-12-15 07:19:00,
2017-12-15 02:24:00,15.2,9.0,30.10,SE,135,0.0,-999.0,75,0.00,,,0.00,,2017-12-15 07:24:00,
2017-12-15 02:29:00,15.2,9.0,30.10,ESE,113,0.0,-999.0,76,0.00,,,0.00,,2017-12-15 07:29:00,
2017-12-15 02:34:00,15.0,8.0,30.10,ESE,113,0.0,-999.0,75,0.00,,,0.00,,2017-12-15 07:34:00,
2017-12-15 02:39:00,15.0,8.0,30.10,ESE,113,0.0,-999.0,75,0.00,,,0.00,,2017-12-15 07:39:00,
2017-12-15 02:44:00,15.2,9.0,30.10,SE,135,0.0,-999.0,76,0.00,,,0.00,,2017-12-15 07:44:00,
2017-12-15 02:49:00,15.3,9.0,30.11,South,180,0.0,-999.0,76,0.00,,,0.00,,2017-12-15 07:49:00,
2017-12-15 02:54:00,15.6,10.0,30.11,SE,135,0.0,-999.0,79,0.00,,,0.00,,2017-12-15 07:54:00,
2017-12-15 02:59:00,15.6,10.0,30.11,SE,135,0.0,-999.0,79,0.00,,,0.00,,2017-12-15 07:59:00,
2017-12-15 03:04:00,15.3,10.0,30.11,ESE,113,0.0,-999.0,79,0.00,,,0.00,,2017-12-15 08:04:00,
2017-12-15 03:09:00,15.3,10.0,30.10,SSE,158,0.0,-999.0,79,0.00,,,0.00,,2017-12-15 08:09:00,
2017-12-15 03:14:00,15.3,10.0,30.10,SE,135,0.0,-999.0,79,0.00,,,0.00,,2017-12-15 08:14:00,
2017-12-15 03:19:00,15.2,9.0,30.10,SE,135,0.0,-999.0,79,0.00,,,0.00,,2017-12-15 08:19:00,
2017-12-15 03:24:00,15.2,9.0,30.09,SSE,158,0.0,-999.0,78,0.00,,,0.00,,2017-12-15 08:24:00,
2017-12-15 03:29:00,15.0,9.0,30.09,SSE,158,0.0,-999.0,78,0.00,,,0.00,,2017-12-15 08:29:00,
2017-12-15 03:34:00,14.9,9.0,30.10,SE,135,0.0,-999.0,78,0.00,,,0.00,,2017-12-15 08:34:00,
2017-12-15 03:39:00,14.5,8.0,30.10,ESE,113,0.0,-999.0,78,0.00,,,0.00,,2017-12-15 08:39:00,
2017-12-15 03:44:00,14.3,8.0,30.09,South,180,0.0,-999.0,78,0.00,,,0.00,,2017-12-15 08:44:00,
2017-12-15 03:49:00,14.3,9.0,30.09,SE,135,0.0,-999.0,79,0.00,,,0.00,,2017-12-15 08:49:00,
2017-12-15 03:54:00,14.1,8.0,30.09,SSE,158,0.0,-999.0,79,0.00,,,0.00,,2017-12-15 08:54:00,
2017-12-15 03:59:00,14.1,8.0,30.09,SE,135,0.0,-999.0,79,0.00,,,0.00,,2017-12-15 08:59:00,
2017-12-15 04:04:00,13.7,8.0,30.08,SSE,158,0.0,-999.0,79,0.00,,,0.00,,2017-12-15 09:04:00,
2017-12-15 04:10:00,13.9,8.0,30.09,SSE,158,0.0,-999.0,79,0.00,,,0.00,,2017-12-15 09:10:00,
2017-12-15 04:15:00,13.9,8.0,30.09,SE,135,0.0,-999.0,79,0.00,,,0.00,,2017-12-15 09:15:00,
2017-12-15 04:20:00,13.7,8.0,30.09,SSE,158,0.0,-999.0,79,0.00,,,0.00,,2017-12-15 09:20:00,
2017-12-15 04:25:00,13.7,8.0,30.09,ESE,113,0.0,-999.0,80,0.00,,,0.00,,2017-12-15 09:25:00,
2017-12-15 04:30:00,13.6,8.0,30.09,SSE,158,0.0,-999.0,80,0.00,,,0.00,,2017-12-15 09:30:00,
2017-12-15 04:35:00,13.6,8.0,30.09,SSE,158,0.0,-999.0,80,0.00,,,0.00,,2017-12-15 09:35:00,
2017-12-15 04:40:00,13.6,8.0,30.08,ESE,113,0.0,-999.0,80,0.00,,,0.00,,2017-12-15 09:40:00,
2017-12-15 04:45:00,13.5,8.0,30.09,South,180,0.0,-999.0,80,0.00,,,0.00,,2017-12-15 09:45:00,
2017-12-15 04:50:00,13.6,8.0,30.09,SSE,158,0.0,-999.0,80,0.00,,,0.00,,2017-12-15 09:50:00,
2017-12-15 04:55:00,13.6,8.0,30.09,SSE,158,0.0,-999.0,80,0.00,,,0.00,,2017-12-15 09:55:00,
2017-12-15 05:01:00,13.6,8.0,30.09,SSE,158,0.0,-999.0,80,0.00,,,0.00,,2017-12-15 10:01:00,
2017-12-15 05:06:00,13.5,8.0,30.08,SSE,158,0.0,-999.0,80,0.00,,,0.00,,2017-12-15 10:06:00,
2017-12-15 05:11:00,13.5,8.0,30.08,South,180,0.0,-999.0,80,0.00,,,0.00,,2017-12-15 10:11:00,
2017-12-15 05:16:00,13.5,8.0,30.09,ESE,113,0.0,-999.0,81,0.00,,,0.00,,2017-12-15 10:16:00,
2017-12-15 05:21:00,13.5,8.0,30.09,SSE,158,0.0,-999.0,81,0.00,,,0.00,,2017-12-15 10:21:00,
2017-12-15 05:26:00,13.5,8.0,30.09,ESE,113,0.0,-999.0,81,0.00,,,0.00,,2017-12-15 10:26:00,
2017-12-15 05:31:00,13.5,8.0,30.09,WSW,248,0.0,-999.0,80,0.00,,,0.00,,2017-12-15 10:31:00,
2017-12-15 05:36:00,13.5,8.0,30.09,ESE,113,0.0,-999.0,80,0.00,,,0.00,,2017-12-15 10:36:00,
2017-12-15 05:41:00,13.3,8.0,30.09,ESE,113,0.0,-999.0,80,0.00,,,0.00,,2017-12-15 10:41:00,
2017-12-15 05:46:00,13.3,8.0,30.09,ESE,113,0.0,-999.0,80,0.00,,,0.00,,2017-12-15 10:46:00,
2017-12-15 05:51:00,13.5,8.0,30.09,SW,225,0.0,-999.0,80,0.00,,,0.00,,2017-12-15 10:51:00,
2017-12-15 05:56:00,13.6,8.0,30.09,ESE,113,0.0,-999.0,80,0.00,,,0.00,,2017-12-15 10:56:00,
2017-12-15 06:01:00,13.6,8.0,30.10,South,180,0.0,-999.0,80,0.00,,,0.00,,2017-12-15 11:01:00,
2017-12-15 06:06:00,13.5,8.0,30.10,ESE,113,0.0,-999.0,80,0.00,,,0.00,,2017-12-15 11:06:00,
2017-12-15 06:11:00,13.5,8.0,30.10,South,180,0.0,-999.0,80,0.00,,,0.00,,2017-12-15 11:11:00,
2017-12-15 06:16:00,13.5,8.0,30.10,SE,135,0.0,-999.0,80,0.00,,,0.00,,2017-12-15 11:16:00,
2017-12-15 06:21:00,13.3,8.0,30.10,ESE,113,0.0,-999.0,80,0.00,,,0.00,,2017-12-15 11:21:00,
2017-12-15 06:26:00,13.3,8.0,30.11,ESE,113,0.0,-999.0,80,0.00,,,0.00,,2017-12-15 11:26:00,
2017-12-15 06:31:00,13.3,8.0,30.11,NNE,23,0.0,-999.0,80,0.00,,,0.00,,2017-12-15 11:31:00,
2017-12-15 06:36:00,13.5,8.0,30.10,West,270,0.0,-999.0,80,0.00,,,0.00,,2017-12-15 11:36:00,
2017-12-15 06:41:00,13.6,8.0,30.10,SSW,203,0.0,-999.0,80,0.00,,,0.00,,2017-12-15 11:41:00,
2017-12-15 06:46:00,13.6,8.0,30.11,South,180,0.0,-999.0,81,0.00,,,0.00,,2017-12-15 11:46:00,
2017-12-15 06:51:00,13.7,9.0,30.10,NNW,338,0.0,-999.0,81,0.00,,,0.00,,2017-12-15 11:51:00,
2017-12-15 06:57:00,14.1,9.0,30.10,ENE,68,0.0,-999.0,81,0.00,,,0.00,,2017-12-15 11:57:00,
2017-12-15 07:02:00,14.1,9.0,30.11,NE,45,0.0,-999.0,81,0.00,,,0.00,,2017-12-15 12:02:00,
2017-12-15 07:07:00,14.3,9.0,30.10,ENE,68,0.0,-999.0,81,0.00,,,0.00,,2017-12-15 12:07:00,
2017-12-15 07:12:00,14.3,9.0,30.10,ENE,68,0.0,-999.0,81,0.00,,,0.00,,2017-12-15 12:12:00,
2017-12-15 07:17:00,14.5,9.0,30.10,South,180,0.0,-999.0,81,0.00,,,0.00,,2017-12-15 12:17:00,
2017-12-15 07:22:00,14.7,9.0,30.10,ESE,113,0.0,-999.0,81,0.00,,,0.00,,2017-12-15 12:22:00,
2017-12-15 07:27:00,14.9,10.0,30.10,WNW,293,0.0,-999.0,81,0.00,,,0.00,,2017-12-15 12:27:00,
2017-12-15 07:32:00,15.2,10.0,30.10,NNE,23,0.0,-999.0,81,0.00,,,0.00,,2017-12-15 12:32:00,
2017-12-15 07:37:00,15.2,10.0,30.10,SSE,158,0.0,-999.0,81,0.00,,,0.00,,2017-12-15 12:37:00,
2017-12-15 07:42:00,15.3,10.0,30.10,West,270,0.0,-999.0,81,0.00,,,0.00,,2017-12-15 12:42:00,
2017-12-15 07:47:00,15.8,11.0,30.10,West,270,0.0,-999.0,83,0.00,,,0.00,,2017-12-15 12:47:00,
2017-12-15 07:52:00,16.2,11.0,30.10,NNE,23,0.0,-999.0,83,0.00,,,0.00,,2017-12-15 12:52:00,
2017-12-15 07:57:00,16.2,12.0,30.10,North,0,0.0,-999.0,83,0.00,,,0.00,,2017-12-15 12:57:00,
2017-12-15 08:02:00,16.4,12.0,30.10,North,0,0.0,-999.0,83,0.00,,,0.00,,2017-12-15 13:02:00,
2017-12-15 08:07:00,17.1,12.0,30.10,North,0,0.0,-999.0,83,0.00,,,0.00,,2017-12-15 13:07:00,
2017-12-15 08:12:00,17.2,12.0,30.10,North,0,0.0,-999.0,83,0.00,,,0.00,,2017-12-15 13:12:00,
2017-12-15 08:17:00,17.4,12.0,30.10,North,0,0.0,-999.0,81,0.00,,,0.00,,2017-12-15 13:17:00,
2017-12-15 08:22:00,17.7,12.0,30.10,North,0,0.0,-999.0,81,0.00,,,0.00,,2017-12-15 13:22:00,
2017-12-15 08:27:00,18.2,13.0,30.10,West,270,0.0,-999.0,81,0.00,,,0.00,,2017-12-15 13:27:00,
2017-12-15 08:32:00,18.5,13.0,30.10,WNW,293,0.0,-999.0,80,0.00,,,0.00,,2017-12-15 13:32:00,
2017-12-15 08:37:00,18.8,12.0,30.10,NW,315,0.0,-999.0,75,0.00,,,0.00,,2017-12-15 13:37:00,
2017-12-15 08:42:00,19.2,11.0,30.10,North,0,0.0,-999.0,71,0.00,,,0.00,,2017-12-15 13:42:00,
2017-12-15 08:47:00,19.3,10.0,30.10,SSE,158,0.0,-999.0,68,0.00,,,0.00,,2017-12-15 13:47:00,
2017-12-15 08:57:00,20.0,10.0,30.08,West,270,0.0,-999.0,65,0.00,,,0.00,,2017-12-15 13:57:00,
2017-12-15 09:02:00,20.9,12.0,30.09,West,270,0.0,-999.0,69,0.00,,,0.00,,2017-12-15 14:02:00,
2017-12-15 09:07:00,20.9,13.0,30.09,WNW,293,0.0,-999.0,73,0.00,,,0.00,,2017-12-15 14:07:00,
2017-12-15 09:12:00,21.3,13.0,30.09,West,270,0.0,-999.0,70,0.00,,,0.00,,2017-12-15 14:12:00,
2017-12-15 09:17:00,21.3,13.0,30.08,NE,45,0.0,-999.0,70,0.00,,,0.00,,2017-12-15 14:17:00,
2017-12-15 09:22:00,21.7,13.0,30.08,West,270,0.0,-999.0,70,0.00,,,0.00,,2017-12-15 14:22:00,
2017-12-15 09:24:00,21.9,13.0,30.08,SSE,158,0.0,-999.0,69,0.00,,,0.00,,2017-12-15 14:24:00,
2017-12-15 09:29:00,22.3,13.0,30.09,West,270,0.0,-999.0,70,0.00,,,0.00,,2017-12-15 14:29:00,
2017-12-15 09:34:00,22.5,14.0,30.08,NE,45,0.0,-999.0,70,0.00,,,0.00,,2017-12-15 14:34:00,
2017-12-15 09:39:00,22.5,14.0,30.09,West,270,0.0,-999.0,70,0.00,,,0.00,,2017-12-15 14:39:00,
2017-12-15 09:44:00,22.9,14.0,30.09,WNW,293,0.0,-999.0,69,0.00,,,0.00,,2017-12-15 14:44:00,
2017-12-15 09:45:00,22.9,14.0,30.09,West,270,0.0,-999.0,69,0.00,,,0.00,,2017-12-15 14:45:00,
2017-12-15 09:50:00,23.2,13.0,30.09,NW,315,0.0,-999.0,66,0.00,,,0.00,,2017-12-15 14:50:00,
2017-12-15 09:55:00,23.4,14.0,30.09,West,270,0.0,-999.0,68,0.00,,,0.00,,2017-12-15 14:55:00,
2017-12-15 10:00:00,24.1,14.0,30.09,West,270,0.0,-999.0,65,0.00,,,0.00,,2017-12-15 15:00:00,
2017-12-15 10:05:00,24.6,13.0,30.09,NE,45,0.0,-999.0,63,0.00,,,0.00,,2017-12-15 15:05:00,
2017-12-15 10:11:00,24.8,12.0,30.08,NE,45,0.0,-999.0,58,0.00,,,0.00,,2017-12-15 15:11:00,
2017-12-15 10:16:00,24.4,10.0,30.09,WNW,293,0.0,-999.0,55,0.00,,,0.00,,2017-12-15 15:16:00,
2017-12-15 10:21:00,24.8,12.0,30.09,South,180,0.0,-999.0,58,0.00,,,0.00,,2017-12-15 15:21:00,
2017-12-15 10:26:00,25.1,12.0,30.08,NW,315,0.0,-999.0,58,0.00,,,0.00,,2017-12-15 15:26:00,
2017-12-15 10:31:00,25.4,12.0,30.08,NE,45,0.0,-999.0,58,0.00,,,0.00,,2017-12-15 15:31:00,
2017-12-15 10:36:00,25.4,12.0,30.08,NNW,338,0.0,-999.0,56,0.00,,,0.00,,2017-12-15 15:36:00,
2017-12-15 10:41:00,25.1,12.0,30.08,ENE,68,0.0,-999.0,56,0.00,,,0.00,,2017-12-15 15:41:00,
2017-12-15 10:46:00,25.7,12.0,30.07,NNE,23,0.0,-999.0,58,0.00,,,0.00,,2017-12-15 15:46:00,
2017-12-15 10:51:00,25.7,12.0,30.07,SSW,203,0.0,-999.0,56,0.00,,,0.00,,2017-12-15 15:51:00,
2017-12-15 10:56:00,25.1,12.0,30.06,West,270,0.0,-999.0,56,0.00,,,0.00,,2017-12-15 15:56:00,
2017-12-15 11:01:00,25.7,13.0,30.06,SW,225,0.0,-999.0,60,0.00,,,0.00,,2017-12-15 16:01:00,
2017-12-15 11:06:00,25.9,13.0,30.05,WSW,248,0.0,-999.0,60,0.00,,,0.00,,2017-12-15 16:06:00,